Location: Frankfurt am Main
(50.1109°N, 8.6821°E)
Time: 22:36:34
(UTC+01:00)

ISS - Pass Details

Date: 22 January 2020
Orbit: 415 x 423 km, 51.6° (Epoch: 25 February)

Event Time Altitude Azimuth Distance (km) Brightness Sun altitude
Rises 18:17:49 0° 202° (SSW) 2,368 0.6 -12.0°
Reaches altitude 10° 18:20:27 10° 180° (S) 1,506 -0.7 -12.4°
Maximum altitude 18:22:39 16° 139° (SE) 1,181 -1.7 -12.8°
Enters shadow 18:23:38 15° 118° (ESE) 1,254 -1.8 -12.9°
